Theta_e
310 313 316 316 317 315 313 314 315 314 314 313 313 313 314 314 312 312 312 308 307 310 310 309 310 309 309 309 309 309 310 310 309 308 307 306 306 305 305 304 304 304 303 303 302 302 302 301 301 300 300 300 300 300 301 300 300 300 300 300 299 298 298 298 298 298 297 298 297 297 296 296 295 295 295 295 295 294 294 294 293 294 294 294 294 293
310 314 316 314 311 311 311 312 313 312 313 313 313 313 313 313 312 312 311 308 307 309 310 309 309 309 308 308 308 309 310 308 306 306 306 305 305 305 304 304 304 304 303 303 303 302 301 301 300 300 300 300 300 300 300 300 300 300 300 300 300 299 298 298 298 297 297 297 296 295 295 294 294 294 294 294 294 293 293 292 293 293 293 293 293 292
313 315 313 309 308 310 311 311 311 311 312 313 313 312 312 313 313 312 310 309 307 308 310 309 308 308 307 308 308 308 308 306 305 305 305 304 305 304 304 304 304 303 303 303 302 302 301 301 300 300 300 300 300 300 300 300 300 299 299 299 299 299 298 298 297 297 296 295 294 294 294 293 293 292 292 292 292 291 291 291 292 292 292 292 292 292
316 314 309 307 308 310 311 310 309 311 312 312 312 312 313 313 313 312 311 310 309 309 309 308 309 308 308 309 308 307 306 305 304 304 304 304 304 304 304 303 303 302 302 302 301 301 300 300 300 299 299 299 299 299 299 299 299 299 299 298 298 298 298 297 297 296 295 294 293 293 293 292 292 291 291 291 290 290 290 291 291 291 291 291 291 291
316 310 306 307 308 309 311 311 311 311 312 313 313 312 313 312 311 310 311 310 309 310 310 309 310 310 311 311 308 307 306 305 305 305 304 304 304 304 303 302 302 301 301 301 301 300 300 300 299 299 298 298 299 298 298 298 297 297 297 297 296 296 296 296 296 296 295 295 294 293 292 292 292 292 291 290 290 290 290 290 290 290 290 289 289 289
314 307 304 308 309 308 310 311 312 312 310 311 312 311 309 309 309 309 310 309 308 310 311 309 310 312 313 311 308 308 307 306 305 305 304 304 303 302 302 302 301 301 301 300 300 300 300 299 299 298 298 298 298 297 296 296 295 295 294 294 294 294 294 294 294 294 294 294 294 294 293 293 292 292 292 291 290 289 289 289 289 288 288 288 288 288
310 305 305 309 309 309 311 311 312 311 309 310 310 308 307 307 307 308 308 308 308 309 310 309 310 310 311 310 309 309 307 306 305 304 303 303 303 302 302 301 301 300 300 300 299 299 299 298 298 298 297 297 297 296 295 295 294 294 294 293 293 292 292 292 292 292 292 292 293 293 293 293 292 292 292 291 290 289 288 288 287 287 287 287 287 287
309 307 306 308 308 310 312 310 310 309 308 311 309 306 306 307 308 308 308 308 308 308 308 309 309 308 309 310 310 309 307 306 305 304 304 303 302 302 301 301 300 299 299 299 299 298 298 298 297 297 297 296 296 295 295 295 295 294 294 293 293 292 291 291 291 291 290 291 291 292 292 292 292 292 292 290 289 288 288 287 287 287 286 286 286 287
310 310 309 308 308 310 309 307 307 307 308 310 307 305 305 306 307 307 307 307 307 308 309 310 310 310 311 311 309 309 307 306 305 305 304 303 302 301 301 300 300 299 298 298 298 298 298 297 297 296 296 296 295 295 295 295 294 294 294 293 292 291 291 290 290 290 290 290 290 290 291 291 292 291 291 290 288 288 287 287 287 286 286 286 286 286
310 308 308 309 309 308 306 304 306 307 308 307 306 306 307 307 307 306 306 306 307 309 310 310 310 310 312 310 309 309 308 306 305 305 303 302 301 301 300 300 300 299 298 297 297 297 297 297 297 296 296 295 295 295 294 294 294 293 293 292 292 291 290 290 289 289 289 289 289 289 289 290 290 290 290 289 288 287 287 286 286 286 286 286 285 285
308 304 305 308 307 305 304 303 305 306 306 306 306 308 309 309 307 306 306 306 307 311 310 309 310 308 309 310 308 307 307 306 306 304 303 301 300 300 300 299 299 298 297 297 297 297 297 296 296 296 295 295 295 294 294 294 294 293 292 292 291 290 290 289 289 289 288 288 288 288 288 289 289 289 289 289 288 287 287 286 286 286 285 285 285 284
309 306 307 306 304 304 304 304 304 303 303 305 306 307 309 309 308 306 306 306 310 313 307 305 308 308 309 309 306 305 305 306 306 304 302 301 300 300 299 299 298 298 297 297 296 296 296 296 295 295 295 295 294 294 294 294 293 293 292 291 291 290 290 289 289 289 288 288 288 288 288 288 288 288 288 288 288 287 286 286 286 285 285 284 284 284
312 310 307 305 303 303 305 307 306 305 305 306 307 307 309 311 310 309 309 309 312 311 305 304 306 307 308 308 305 304 304 304 304 302 301 301 300 300 299 299 298 298 297 297 296 296 296 295 295 295 295 295 294 294 294 294 293 293 292 292 291 290 290 290 290 289 289 288 288 288 288 288 288 288 287 287 287 287 286 286 285 285 285 284 283 283
313 311 308 307 306 303 304 306 307 307 306 306 307 307 309 311 309 309 310 311 312 309 304 303 305 307 308 306 304 303 302 302 301 300 300 300 300 300 299 299 298 297 297 296 296 296 295 295 294 294 295 295 294 294 294 293 293 293 292 292 291 291 290 290 290 290 289 289 288 287 287 287 287 287 287 287 286 286 286 285 285 285 284 284 283 283
312 313 310 308 307 304 304 305 304 305 306 306 306 306 307 309 309 310 310 310 311 309 306 304 305 309 309 306 303 302 301 301 301 301 300 300 300 300 299 299 298 297 297 296 296 295 295 294 294 294 294 294 294 294 294 293 293 292 292 292 291 291 291 291 290 290 289 289 288 287 287 286 286 286 286 286 286 286 286 285 285 284 284 284 283 283
311 314 308 304 303 302 303 304 302 305 307 305 304 306 307 307 307 309 310 308 308 309 308 306 308 309 306 303 303 302 301 301 301 301 300 300 300 300 299 298 298 297 297 296 296 295 295 294 294 293 294 294 294 294 293 293 292 292 292 291 291 291 291 291 290 290 290 289 289 288 287 287 286 286 285 285 285 285 285 285 285 284 284 283 283 282
310 311 307 303 302 301 301 302 302 305 307 305 304 306 306 304 304 307 309 308 307 308 308 308 309 307 304 303 302 302 302 301 301 300 300 300 300 299 299 298 297 297 296 296 295 295 295 294 293 293 293 294 294 294 293 292 292 291 291 291 291 291 291 291 290 290 290 290 289 289 288 288 287 286 285 285 285 285 285 285 285 284 284 283 282 282
307 309 307 305 306 302 299 300 301 302 303 305 305 305 304 304 304 305 307 308 308 309 308 308 309 308 307 306 303 302 303 301 301 301 299 299 299 299 299 298 297 297 296 295 295 294 294 294 293 293 293 294 294 293 292 292 291 291 291 291 291 291 290 290 290 290 290 289 289 289 289 288 288 287 286 285 285 285 284 285 285 284 283 283 282 281
306 309 306 304 305 303 299 302 304 302 301 303 304 303 305 307 307 306 306 307 309 308 307 308 309 308 309 307 303 302 302 301 301 301 299 299 298 298 298 297 297 296 295 295 294 294 294 293 293 293 293 294 293 293 292 291 291 290 290 290 290 290 290 289 289 289 289 289 289 289 289 289 288 287 287 286 286 285 284 284 284 284 283 282 281 281
306 308 308 305 304 302 301 304 307 305 302 302 303 303 304 305 306 307 307 306 307 307 307 307 308 307 306 305 303 302 301 300 300 300 299 298 297 297 297 296 296 295 295 294 294 294 293 293 293 293 293 294 293 292 291 291 290 290 290 290 290 289 289 289 289 288 288 288 287 288 288 288 288 288 287 287 286 285 285 284 284 284 283 282 281 280
306 307 308 306 304 304 304 304 304 305 304 304 305 305 305 305 305 306 306 305 306 307 307 307 308 307 305 303 302 301 300 300 299 299 298 297 297 297 296 296 295 294 294 294 293 293 293 292 293 293 293 293 292 291 291 290 290 289 289 289 289 289 288 288 288 287 287 286 286 287 287 287 288 288 288 287 286 286 285 284 284 284 283 282 282 281
305 305 306 306 305 306 306 302 300 301 304 304 305 305 306 306 306 305 306 306 305 305 306 305 306 306 304 302 301 300 300 299 298 297 297 296 296 296 295 295 295 294 294 294 293 292 292 292 293 293 292 292 291 290 290 289 289 289 289 289 288 288 288 288 288 287 287 286 286 286 286 286 287 287 288 287 287 286 286 285 284 283 283 283 283 283
302 303 304 305 305 305 303 299 297 300 302 303 303 303 304 306 306 306 306 305 303 304 303 303 305 305 302 301 300 300 299 298 297 296 296 295 295 295 295 294 294 294 293 293 292 292 292 292 292 292 291 290 290 289 289 288 288 288 288 288 288 288 288 288 288 287 287 287 286 286 286 286 286 287 287 287 287 286 285 285 285 284 283 283 283 283
301 303 304 306 306 304 300 298 298 299 301 303 302 301 303 305 305 304 304 303 302 303 303 303 304 304 302 301 299 298 298 297 296 296 295 295 294 294 294 294 294 293 292 292 292 292 291 291 290 290 289 289 288 288 288 288 288 288 288 288 288 288 288 288 288 287 287 287 286 286 286 286 286 286 287 287 287 286 285 285 285 284 284 283 283 283
303 306 306 306 307 305 303 303 302 302 303 303 303 301 302 305 305 304 302 302 302 303 302 303 304 304 302 300 298 297 296 295 295 295 294 294 294 294 294 293 293 292 291 291 291 291 290 289 288 288 288 288 288 288 288 288 288 288 287 287 287 287 287 286 286 287 287 286 286 286 285 285 285 286 286 287 287 286 286 285 285 284 283 283 283 283
304 306 304 305 306 306 307 308 306 305 304 303 303 303 301 303 304 303 301 302 303 303 301 302 303 302 299 298 297 296 295 294 294 294 293 293 293 293 292 292 291 291 291 291 290 289 288 288 287 287 287 287 287 287 287 287 287 287 287 286 286 285 284 284 284 285 286 286 286 285 285 285 285 286 286 287 286 286 286 285 284 283 283 282 282 282
302 304 303 304 306 306 306 306 305 304 302 302 304 304 302 302 301 300 300 301 302 301 300 301 301 299 298 297 296 294 294 293 293 293 293 292 292 291 291 291 290 290 291 290 289 288 288 287 287 287 287 287 287 286 286 286 286 286 286 285 284 283 283 283 284 284 285 285 285 285 285 285 284 285 286 286 286 286 286 285 284 283 282 282 281 281
302 304 304 304 305 305 304 302 302 302 302 302 303 302 302 303 301 299 300 300 300 300 300 300 298 297 297 295 294 293 293 293 292 292 291 291 290 290 290 290 290 290 289 289 288 287 287 286 286 286 286 286 285 285 285 285 285 284 284 284 283 283 283 283 284 284 284 284 284 283 283 282 282 283 284 285 285 285 285 285 283 283 282 281 281 281
301 303 303 303 303 302 301 301 301 302 302 301 301 299 299 301 301 300 300 299 299 299 299 298 296 296 295 293 293 293 292 292 291 291 290 290 290 289 289 290 290 289 288 287 287 286 286 286 285 285 285 284 284 284 283 283 283 283 282 282 283 283 283 283 283 283 283 283 282 281 280 280 281 282 282 283 283 284 284 284 283 282 282 281 281 280
300 303 303 303 303 302 302 302 302 301 301 299 298 298 297 298 299 298 298 297 296 296 296 295 295 295 294 292 292 291 291 290 290 290 289 289 289 289 290 290 289 287 287 286 285 285 285 284 284 283 283 283 282 282 281 282 282 282 282 282 282 282 281 281 281 281 280 280 279 279 279 280 280 281 281 281 281 282 282 283 283 282 281 281 280 280
298 303 303 302 303 304 302 302 302 301 300 297 295 296 296 295 296 295 295 295 295 295 295 294 295 295 293 291 290 290 290 290 289 289 289 289 289 289 289 288 287 286 285 285 284 284 283 283 282 282 281 281 281 281 281 281 281 281 280 279 279 279 279 279 279 278 278 278 278 278 279 279 279 280 280 280 281 281 281 282 282 282 281 281 280 280
299 302 302 301 304 304 302 302 302 300 298 296 294 294 294 294 294 294 294 295 295 295 295 295 295 293 291 290 289 289 289 289 289 289 289 288 288 288 287 286 285 285 284 284 283 283 282 281 281 280 280 280 281 281 280 280 279 278 277 277 277 277 277 277 277 277 277 277 278 278 278 277 278 278 279 279 280 280 280 280 280 281 281 280 280 279
300 300 301 302 303 303 302 303 302 300 300 298 295 293 294 293 293 293 293 294 294 294 294 293 292 290 289 289 288 288 288 288 288 288 288 287 287 287 285 284 284 283 283 282 282 281 281 280 279 279 280 280 279 279 278 278 277 276 276 276 276 276 276 276 275 275 275 276 276 276 276 276 276 277 278 277 277 278 278 278 278 278 279 279 279 279
300 300 301 302 302 303 303 302 301 302 302 298 294 293 294 293 292 292 293 294 293 292 291 291 289 288 288 288 287 288 288 288 288 287 286 286 286 285 284 283 283 282 281 281 280 280 279 279 279 279 278 278 277 277 276 276 276 275 274 274 274 274 274 274 273 273 273 274 275 276 275 274 274 275 275 275 275 275 275 276 276 276 277 278 278 279
300 300 301 301 301 303 303 302 303 304 301 295 292 293 293 292 292 292 293 293 291 289 288 288 288 287 287 287 287 287 287 287 286 285 285 286 285 283 283 282 282 281 280 280 279 278 278 278 277 277 276 276 276 275 275 274 274 273 273 273 273 273 273 272 272 271 271 272 274 275 274 273 273 273 273 273 274 274 274 274 275 275 276 276 277 277
299 300 301 301 302 302 302 302 302 300 296 293 293 292 292 292 292 292 293 291 288 287 287 287 287 287 286 286 287 287 286 286 284 284 285 285 283 282 282 281 281 280 279 278 278 278 277 277 276 275 275 274 274 274 273 273 272 272 272 272 272 272 272 271 270 270 269 271 272 273 273 272 271 272 272 273 273 273 274 274 275 275 276 276 276 276
297 299 300 301 302 301 300 301 301 298 296 293 292 291 291 291 291 291 292 291 287 287 287 286 286 286 285 286 286 286 285 284 283 284 284 283 282 281 281 280 279 279 278 278 277 277 276 275 275 274 273 273 272 272 272 272 271 271 271 271 272 272 271 270 268 268 269 271 272 272 272 271 271 271 272 272 273 273 274 274 274 274 274 275 275 275
297 297 298 300 301 301 300 299 299 300 298 293 291 291 291 291 291 291 292 292 288 286 287 287 285 285 285 285 285 284 283 283 282 283 283 282 281 280 279 279 278 278 277 277 276 275 275 274 273 272 272 272 271 271 271 271 270 270 271 271 271 270 269 267 267 267 269 270 271 270 270 270 270 271 271 271 272 272 272 272 272 272 272 273 273 273
297 298 299 299 300 300 298 298 298 299 296 292 290 291 291 291 290 290 292 293 289 286 287 287 285 285 285 285 284 283 282 281 281 281 281 281 280 279 278 278 277 277 276 275 274 274 274 273 272 271 271 271 270 270 270 270 269 269 269 269 268 267 266 266 266 266 267 268 269 269 269 269 269 269 270 270 270 270 270 270 270 270 271 271 272 272
298 299 299 299 298 298 297 298 298 296 292 290 290 290 290 290 290 291 292 292 288 286 287 286 285 285 284 284 283 282 281 280 280 280 281 280 279 278 277 277 276 276 275 274 273 273 272 271 270 270 270 270 270 269 269 268 267 267 267 267 266 265 265 265 265 266 266 267 268 268 267 267 267 267 268 268 269 269 269 269 269 269 270 270 270 271
296 296 298 297 297 297 297 297 297 295 290 289 289 289 289 289 290 291 290 289 287 286 285 284 283 283 283 283 282 282 281 280 280 279 279 279 278 277 276 276 276 275 274 273 272 272 271 270 270 269 269 269 268 268 267 267 266 266 266 265 265 264 264 264 265 265 266 266 265 265 265 265 265 266 266 267 267 268 268 268 268 268 268 269 269 270
293 294 296 296 295 296 295 296 297 295 290 287 288 289 289 289 289 289 288 286 285 285 284 283 282 282 281 281 280 280 280 279 279 278 278 277 276 276 275 275 274 273 272 272 271 271 270 269 269 268 268 267 267 267 266 266 265 265 264 264 264 263 263 264 264 264 264 263 263 263 264 264 264 265 265 265 266 266 266 266 266 267 267 268 268 269
292 293 295 295 294 294 294 294 295 294 290 287 287 288 289 288 288 287 286 285 284 283 282 282 281 281 280 279 279 279 278 277 277 277 276 276 275 275 274 274 273 272 271 271 270 270 269 268 268 267 267 266 266 266 265 265 264 264 263 263 263 263 263 263 263 262 262 262 262 263 263 263 263 263 263 264 264 264 265 265 265 265 266 266 267 267
291 292 293 293 293 293 293 293 292 291 289 287 287 287 288 287 286 285 284 284 283 282 281 281 280 279 278 278 278 277 277 276 276 275 275 275 274 273 273 272 271 271 270 270 269 269 268 267 267 266 266 265 265 265 264 264 263 263 262 262 262 262 262 262 261 261 261 261 262 262 261 261 261 261 262 262 263 263 263 264 264 264 265 265 266 266
290 290 290 291 292 291 290 291 290 288 287 287 286 287 287 285 284 283 283 282 282 281 280 280 279 277 277 276 276 276 276 275 275 274 274 273 273 272 272 271 270 270 269 269 268 268 267 266 266 265 265 265 264 264 263 263 262 262 262 261 261 261 261 260 260 260 260 260 260 260 259 259 259 260 260 261 261 262 263 263 263 264 264 265 265 266
289 288 289 290 290 288 288 289 288 287 287 286 286 286 285 283 283 282 281 281 280 279 279 279 278 276 276 275 275 275 275 274 274 273 273 272 272 271 271 270 269 269 268 268 267 267 266 265 265 265 264 264 263 263 262 262 261 261 261 261 260 260 260 259 259 259 259 259 258 258 258 258 258 259 259 260 261 261 262 262 263 264 264 265 266 267
289 288 288 289 288 287 288 289 287 286 286 285 285 285 283 282 282 281 281 280 279 278 278 278 277 276 275 274 274 274 274 273 273 272 272 271 271 270 270 269 269 268 267 267 266 266 265 265 264 264 264 263 263 262 261 261 261 260 260 260 259 259 258 258 258 258 258 257 257 257 257 257 258 258 259 260 260 261 261 262 263 264 265 266 266 267
288 288 287 287 286 286 288 288 286 286 285 285 285 284 282 281 281 281 280 279 278 278 277 277 277 276 275 274 273 273 273 272 272 271 271 270 270 269 269 268 268 267 266 266 265 265 264 264 264 263 263 262 262 261 260 260 260 260 259 259 258 258 257 257 257 257 257 256 256 256 257 257 258 258 259 260 260 261 262 262 263 264 265 265 265 266
287 287 286 285 285 286 287 287 286 285 284 284 284 282 281 280 280 279 279 278 278 277 276 276 275 275 274 273 273 272 272 271 271 270 270 269 269 268 268 267 267 266 265 265 264 264 264 264 263 263 262 262 261 260 260 260 260 259 259 258 257 257 256 256 256 256 256 256 256 256 257 257 258 258 259 260 261 261 262 262 263 264 264 264 265 266
286 285 285 285 285 285 285 285 284 283 283 283 283 281 280 280 279 278 278 277 277 276 275 274 274 273 273 272 272 271 271 270 270 270 269 268 268 267 267 266 266 265 264 264 264 264 263 263 263 262 261 261 260 260 260 259 259 259 258 257 257 256 256 256 255 255 255 256 256 256 257 257 258 259 259 260 260 261 261 262 262 263 263 264 265 266
285 284 284 284 284 284 285 284 283 282 282 282 281 280 280 279 278 278 277 277 276 275 274 273 273 272 272 271 271 270 270 269 269 269 268 267 267 266 266 265 265 264 264 263 263 263 263 263 262 261 261 260 260 259 259 259 258 258 258 257 256 256 256 255 255 255 256 256 256 256 257 257 258 259 259 259 259 260 260 261 261 262 263 264 265 266
Wind_Speed
2 2 4 4 3 1 1 0 2 3 3 2 3 3 5 5 6 5 2 2 1 2 5 6 7 10 12 13 14 18 18 10 3 5 10 12 9 7 5 4 3 2 2 4 5 6 5 4 4 3 3 4 4 4 5 6 8 10 12 14 16 17 19 22 23 25 26 28 29 30 32 33 34 36 37 38 39 39 40 40 40 39 38 37 35 34
1 4 4 1 4 4 4 4 4 3 2 2 3 5 5 5 5 1 3 3 2 1 4 5 8 10 12 15 14 15 10 4 10 11 11 11 9 9 9 6 4 4 2 3 3 2 3 4 4 5 7 7 8 7 7 8 10 12 14 16 17 17 18 21 23 24 26 27 28 29 30 32 33 35 36 38 39 39 40 40 40 40 39 38 36 35
3 4 1 3 4 2 3 4 3 1 2 3 4 4 4 5 3 3 3 3 3 1 4 6 7 9 14 15 10 5 5 11 11 11 10 10 12 13 12 11 10 11 12 13 12 10 10 11 11 10 10 10 10 9 10 11 12 13 15 16 17 18 19 19 21 23 25 26 27 28 30 31 32 34 35 36 37 38 39 39 40 40 40 39 38 36
4 2 2 4 4 3 1 2 0 2 3 4 5 4 4 2 1 0 1 2 3 3 5 6 6 8 13 9 2 8 13 12 12 15 15 13 15 16 16 17 17 18 19 17 16 13 11 11 10 9 10 10 10 10 12 13 14 14 15 16 17 18 20 20 20 21 22 24 25 27 28 30 31 32 33 34 35 37 38 39 39 40 41 40 39 39
4 1 3 4 3 3 2 1 2 3 4 4 4 3 4 2 2 1 2 3 4 3 2 4 4 6 7 3 4 7 10 11 13 16 17 16 17 17 18 19 19 18 17 16 15 12 11 10 8 9 10 10 10 11 13 13 14 15 16 17 18 19 20 21 21 21 21 22 24 25 26 28 30 31 31 33 35 36 38 40 40 41 41 42 41 41
3 2 2 3 2 1 2 3 2 2 3 3 0 2 2 3 3 3 5 6 4 3 1 1 2 3 3 2 6 5 5 8 11 14 16 18 18 18 19 18 17 16 15 15 14 12 11 10 10 11 11 11 13 14 14 14 14 15 16 18 19 20 20 21 22 22 22 22 24 24 25 27 29 30 31 32 33 35 37 38 40 41 41 42 41 41
1 1 1 2 2 1 2 4 2 2 2 3 1 3 4 3 2 3 4 2 1 4 2 2 1 2 4 2 6 8 7 8 10 11 14 17 17 17 17 16 16 16 15 15 14 13 12 12 12 12 11 12 14 15 16 16 17 17 19 20 21 22 23 23 23 24 24 24 24 24 25 26 27 30 31 31 31 32 33 35 37 38 39 40 40 39
2 1 1 1 1 2 2 3 2 2 1 3 3 2 3 2 3 3 2 1 3 5 4 5 4 2 6 4 6 10 9 8 9 8 10 14 16 16 16 15 15 16 16 15 15 15 14 13 14 13 13 15 16 17 18 19 21 22 23 24 25 26 26 26 26 25 25 25 25 24 25 25 26 28 29 28 29 30 31 33 35 35 36 38 38 38
0 0 1 0 1 2 1 0 3 3 0 1 2 1 2 4 4 3 2 3 4 4 5 5 5 2 5 2 6 9 9 8 8 7 8 12 15 14 14 14 14 15 15 14 14 14 13 13 15 15 16 17 19 20 21 23 24 25 26 27 28 29 29 29 27 26 26 25 25 25 24 25 25 25 26 26 27 28 29 32 34 36 37 37 38 39
1 1 0 1 1 1 0 1 1 2 1 1 2 3 5 6 4 2 2 3 3 3 4 4 6 2 4 3 4 5 6 6 6 6 7 12 14 13 13 13 12 13 14 14 14 13 13 13 15 16 18 19 20 21 23 25 26 26 27 28 30 31 31 30 28 27 26 25 25 25 24 24 24 23 23 24 25 26 27 29 32 36 38 38 39 39
2 1 1 1 1 1 2 1 1 1 2 3 4 4 5 4 3 2 3 2 1 2 3 1 5 2 2 1 1 2 2 5 7 6 6 10 13 12 12 12 11 12 14 15 15 14 15 16 17 19 20 21 22 22 24 25 26 27 28 29 30 31 31 30 29 29 28 26 26 26 25 25 25 24 23 23 24 25 26 28 31 35 37 38 39 40
3 1 1 1 1 2 2 2 2 1 2 1 3 3 4 1 2 2 1 1 1 2 3 3 2 0 2 2 1 3 4 6 8 6 6 7 9 10 11 10 10 11 12 14 15 16 18 20 21 22 23 23 24 24 24 25 26 28 29 30 31 32 30 29 29 29 28 27 27 27 26 26 25 24 23 24 24 24 25 27 30 33 35 37 38 39
2 1 1 1 1 1 2 1 1 1 1 3 3 3 3 2 1 1 1 1 1 2 1 3 4 1 4 2 4 6 6 8 9 9 8 7 8 8 9 9 9 10 12 14 16 17 19 22 23 23 23 24 24 24 23 24 26 28 29 30 31 32 30 28 28 28 26 26 27 27 27 27 26 26 25 25 25 24 24 25 28 32 35 36 37 38
1 3 1 1 1 1 2 2 1 0 1 2 2 2 2 2 2 3 2 2 1 1 2 2 3 2 4 1 5 7 8 11 13 12 10 8 7 6 6 7 8 10 12 14 16 18 20 23 24 24 24 25 25 24 23 24 25 28 29 30 32 33 30 28 29 28 26 25 25 25 25 25 26 27 27 27 27 26 25 24 26 30 33 36 37 38
1 2 1 1 0 1 2 1 1 1 3 2 0 1 1 0 2 3 1 2 3 2 2 1 1 2 2 1 5 9 12 14 13 9 7 8 7 5 5 7 8 10 14 15 17 20 22 25 27 28 27 26 25 24 23 24 26 28 30 31 33 33 30 29 30 28 27 27 26 24 23 22 24 26 27 28 28 28 27 26 25 27 30 34 36 37
2 2 1 1 1 1 1 1 1 1 2 2 1 2 0 1 1 2 2 4 5 4 2 1 2 2 2 4 6 10 12 12 12 9 8 8 8 7 6 8 11 13 17 18 20 24 26 29 32 33 31 27 25 23 22 25 27 28 30 32 31 30 28 29 28 28 29 30 30 27 24 23 23 24 26 27 28 29 29 28 27 27 28 30 34 36
2 3 1 1 1 2 2 1 2 2 1 1 2 1 2 2 1 1 4 4 3 3 2 2 2 1 3 2 3 7 7 7 9 10 9 10 12 11 9 12 14 17 20 22 26 29 29 33 36 36 34 28 24 22 23 26 27 28 31 31 29 28 29 29 29 29 31 33 32 30 29 29 27 24 25 27 27 28 28 28 29 28 28 29 31 33
2 3 2 1 1 0 0 2 2 2 1 0 1 3 3 1 2 1 2 2 2 3 2 1 2 3 0 1 2 5 5 6 6 6 8 11 14 13 13 14 15 20 25 28 32 32 32 35 36 37 34 27 21 21 23 26 28 30 31 30 29 30 31 31 31 31 31 32 32 32 33 33 31 28 27 28 28 28 28 28 28 28 28 28 30 32
2 3 2 1 1 1 1 1 2 1 1 0 2 3 1 1 1 1 0 2 2 3 3 2 3 4 2 1 2 4 5 5 5 6 6 9 14 15 15 16 20 26 31 32 33 33 34 36 37 38 32 22 18 21 25 30 32 33 31 30 30 31 31 31 31 30 30 31 31 33 35 35 34 33 32 30 30 29 28 27 27 27 27 27 29 31
2 1 2 2 1 1 1 0 1 1 1 2 3 2 2 2 2 1 0 1 1 3 4 2 2 2 2 3 5 5 5 5 5 6 5 10 16 18 20 24 28 32 33 32 33 35 37 38 38 35 26 20 22 27 31 34 35 33 32 31 31 32 34 34 33 33 33 33 32 33 35 36 37 37 36 34 32 31 30 27 26 26 26 26 27 29
2 2 2 2 2 1 0 1 1 1 1 1 1 0 1 1 1 1 2 1 1 3 3 3 3 1 2 4 6 6 5 5 6 6 7 14 21 24 27 30 32 33 32 32 35 37 38 37 35 30 24 23 27 31 34 36 36 35 34 33 34 36 37 36 35 35 35 34 34 34 35 37 39 39 40 38 34 33 32 28 25 24 23 23 24 26
2 2 3 3 3 3 1 0 2 2 1 2 1 0 1 1 1 2 3 0 1 2 1 2 4 2 3 4 6 6 5 6 11 11 12 19 24 26 28 30 31 32 32 34 37 38 36 34 31 27 25 28 32 35 38 39 39 39 38 37 38 38 38 37 36 36 35 35 36 36 37 38 39 40 42 39 36 36 35 30 26 24 23 23 24 25
2 2 3 4 5 2 1 1 2 3 2 2 2 2 3 2 2 1 4 2 2 2 1 2 4 3 2 5 7 10 10 13 17 18 18 21 25 27 29 30 31 32 33 37 38 35 32 30 29 30 33 38 41 43 44 43 41 40 40 41 42 41 39 38 38 36 34 34 37 39 40 40 39 40 40 39 38 38 37 33 29 26 26 26 26 27
3 1 2 4 4 1 2 1 1 2 2 2 2 3 3 2 3 1 3 1 1 2 2 3 3 2 0 4 12 16 17 18 20 21 23 25 27 29 30 31 31 33 37 39 34 29 28 30 34 39 43 44 46 46 44 42 40 40 40 42 41 39 38 38 38 35 34 35 39 41 41 41 42 41 40 41 40 39 38 35 31 29 28 28 27 28
3 1 1 4 4 2 2 1 2 2 3 3 2 4 4 4 4 1 1 1 1 3 2 3 4 1 2 8 14 16 15 17 20 25 28 27 28 30 31 31 32 35 38 34 28 28 32 37 42 45 44 44 44 42 39 38 39 41 44 45 44 43 44 44 44 41 40 41 42 41 40 41 43 41 39 40 39 39 39 39 34 29 28 27 28 29
2 1 2 2 3 3 3 2 2 3 3 2 2 4 4 4 4 1 2 1 1 3 4 3 5 4 8 13 15 14 14 16 21 28 30 29 29 32 32 32 34 37 35 29 29 34 40 43 46 45 43 41 40 39 40 43 46 48 48 49 50 51 52 52 50 46 43 41 39 38 38 38 40 40 39 39 38 39 42 40 35 30 28 29 30 30
1 2 2 2 4 4 4 5 4 5 5 4 3 4 2 2 4 2 1 1 2 4 4 3 6 11 12 12 12 13 15 14 18 26 29 30 32 34 33 34 36 35 31 30 34 40 44 46 45 42 40 40 41 44 48 49 49 48 48 50 54 55 54 50 45 39 36 35 35 36 38 41 44 44 42 41 41 42 43 39 34 30 30 31 33 35
1 3 2 1 4 5 6 9 8 6 5 4 5 5 2 4 4 2 1 3 4 4 4 4 10 13 12 10 11 13 14 12 16 25 29 31 33 34 35 37 35 31 30 34 39 42 44 43 41 40 42 45 48 49 50 49 48 48 49 51 52 49 44 40 36 33 34 35 37 41 46 49 49 46 42 40 40 39 37 35 34 34 34 36 38 40
1 2 1 2 4 7 9 11 9 5 3 4 6 6 5 4 3 3 1 4 4 3 6 8 12 12 9 10 11 13 16 17 22 28 30 31 34 37 39 37 31 30 33 38 40 41 42 41 42 45 48 48 48 49 50 51 50 49 47 45 42 39 38 40 40 40 42 45 49 54 55 52 48 46 45 44 43 41 37 35 36 38 40 41 41 39
1 1 0 1 5 8 8 7 4 2 2 6 7 7 7 6 4 4 2 5 6 5 7 11 13 10 7 11 14 19 25 27 28 30 31 33 37 40 39 33 29 32 36 37 39 41 44 46 48 48 47 48 49 51 50 47 44 43 43 43 43 44 47 49 48 49 52 55 58 58 53 47 44 45 46 46 45 44 42 40 39 40 41 41 40 38
1 0 1 1 4 5 2 1 1 3 5 7 7 8 8 7 8 7 6 7 7 7 8 11 12 7 9 17 21 24 28 28 28 30 32 35 40 38 31 29 31 34 36 39 43 46 49 48 46 46 48 49 48 46 43 41 42 46 50 51 52 54 54 52 51 53 55 54 52 48 44 42 43 44 43 41 40 39 39 39 39 40 40 40 40 39
1 2 3 2 3 3 1 1 1 6 9 8 8 8 8 6 6 6 6 6 7 9 9 9 6 4 10 20 23 25 28 27 26 27 30 36 41 34 28 30 33 36 41 46 47 47 46 44 44 46 47 45 43 43 44 47 51 55 55 53 52 51 49 48 49 50 49 47 44 43 41 41 41 40 38 36 35 35 35 35 37 37 38 38 39 40
1 2 3 2 3 3 2 6 4 5 6 4 5 6 6 6 7 7 7 7 7 7 6 4 4 6 13 18 19 21 25 26 25 26 31 39 37 29 29 34 37 42 46 45 43 43 43 44 46 45 43 42 44 47 50 51 52 52 50 50 49 48 46 46 46 46 46 46 44 41 39 39 40 39 39 38 38 39 39 39 39 39 37 37 38 38
0 2 3 1 1 3 6 9 6 0 1 1 3 5 5 5 8 9 8 7 7 7 5 5 6 10 15 17 16 18 23 27 29 34 37 35 28 29 36 40 42 44 42 38 39 42 44 45 44 43 44 46 48 48 49 49 48 48 50 49 48 46 44 43 44 46 48 47 43 41 41 41 41 41 42 41 40 40 39 39 39 38 36 35 35 36
2 2 3 1 1 3 6 6 4 2 1 4 5 7 7 5 8 11 8 5 8 9 9 9 10 12 17 22 23 25 28 32 37 39 33 26 29 35 39 40 41 40 39 40 43 43 43 44 44 45 49 49 48 48 49 48 47 49 51 49 47 45 42 42 48 55 54 48 44 44 43 43 42 42 41 40 39 39 39 38 38 36 34 33 33 34
2 2 2 1 1 2 3 4 3 1 3 3 5 11 11 8 11 15 12 6 8 9 10 10 11 16 24 29 28 27 30 36 39 32 21 22 32 38 37 38 39 40 42 43 42 41 43 45 46 47 49 48 48 49 49 47 47 50 51 49 45 42 41 47 58 61 54 45 42 42 42 43 44 42 41 42 42 41 40 39 38 35 33 31 31 31
2 2 2 1 1 1 1 4 2 3 3 6 7 8 10 8 8 11 10 4 7 12 13 11 13 21 29 30 28 28 32 33 27 18 17 26 36 38 38 38 39 41 43 42 41 42 43 43 45 47 47 47 47 46 47 47 49 50 50 47 43 42 48 58 61 54 45 40 40 40 42 44 43 42 42 41 40 39 38 36 34 33 32 33 35 34
3 2 1 1 1 3 2 4 2 2 1 4 5 8 10 12 13 14 10 3 6 18 24 20 18 24 28 28 29 31 29 21 13 14 25 36 40 40 40 41 41 41 41 40 44 47 45 43 46 47 46 47 46 45 46 47 48 48 47 44 45 50 57 59 53 45 42 41 39 39 39 39 39 39 40 40 39 39 39 38 37 37 37 37 38 38
3 2 1 0 2 3 3 2 3 2 0 4 7 10 12 17 22 17 8 3 7 22 30 26 24 27 27 28 31 28 19 10 8 20 35 42 42 42 42 44 44 41 39 43 47 48 46 47 48 48 47 47 47 46 46 46 47 46 45 46 51 55 55 51 47 45 44 41 38 38 38 39 41 43 44 45 45 45 45 46 46 45 43 41 40 40
5 4 2 3 3 4 4 2 2 0 2 6 9 11 17 24 22 11 4 4 14 26 28 25 26 29 28 29 28 20 11 9 14 28 41 43 43 44 43 43 42 40 42 48 48 46 47 49 49 49 48 47 47 48 48 48 47 46 46 50 53 52 50 48 46 45 42 41 44 46 48 51 52 51 50 51 52 52 52 52 50 48 45 43 42 42
5 3 3 5 3 5 3 3 3 1 2 9 13 16 26 27 13 2 4 9 20 29 29 26 27 28 28 28 24 18 20 24 28 36 42 42 43 45 44 41 40 41 45 46 44 44 48 49 49 48 47 46 47 48 49 49 49 49 51 52 51 50 50 48 45 43 43 48 53 54 53 52 49 47 47 47 48 48 48 47 46 44 43 42 41 40
4 3 3 4 3 5 3 3 3 2 4 16 20 19 25 18 3 3 12 16 22 28 29 28 27 25 26 27 25 25 31 35 35 38 40 40 41 44 43 41 43 47 47 44 43 44 47 49 50 50 48 48 47 47 47 48 50 53 53 52 51 50 48 45 44 47 52 56 56 52 47 43 40 41 42 42 40 40 40 40 41 40 40 40 41 41
3 2 3 4 3 2 3 3 3 2 7 24 23 14 14 10 4 12 20 22 23 25 26 27 26 23 26 29 30 32 36 38 38 39 39 40 40 39 39 40 44 47 47 45 45 46 47 48 50 50 50 49 48 47 49 50 52 54 53 51 51 49 45 46 51 55 56 54 50 46 44 44 46 47 48 47 46 45 46 45 44 42 42 42 43 44
2 1 2 3 2 2 2 3 4 2 9 22 21 10 8 11 15 21 24 24 23 23 24 25 24 24 27 30 33 36 38 40 41 40 40 41 40 38 38 41 44 45 45 45 46 46 46 48 49 49 49 48 47 49 50 50 52 53 52 51 51 49 50 54 56 55 51 49 48 49 51 53 55 54 52 51 49 48 48 48 46 46 46 45 44 43
3 5 3 3 1 4 4 3 7 10 15 24 23 15 14 20 24 25 23 20 21 22 24 24 25 27 30 31 33 36 37 38 40 40 40 41 39 38 40 43 44 43 43 44 46 46 46 46 47 47 48 48 49 50 50 49 49 50 51 52 52 53 55 56 54 52 51 52 53 55 56 56 56 52 48 47 45 45 45 45 45 46 45 42 41 40
7 13 9 3 3 8 6 5 13 17 22 29 25 16 17 23 25 23 20 18 19 22 24 23 24 29 31 32 34 36 36 36 38 39 39 38 38 39 42 44 43 43 43 45 45 46 47 46 45 47 49 52 53 52 50 48 47 48 50 53 54 54 54 54 54 54 54 54 55 56 56 55 53 49 46 43 41 40 40 40 40 40 38 36 35 34
8 16 11 3 5 7 4 8 17 19 24 27 21 15 19 24 23 21 20 19 20 22 24 23 25 28 31 32 34 35 35 34 36 37 37 36 38 41 42 42 44 45 45 44 44 46 47 47 47 49 52 54 55 53 51 49 48 49 52 53 54 54 54 54 54 53 53 56 58 57 54 51 48 46 44 42 40 39 38 37 35 34 33 32 31 31
7 12 8 3 5 6 6 7 19 22 21 17 13 16 24 26 22 20 20 20 21 23 23 24 25 28 31 32 33 34 34 33 33 34 35 36 38 40 41 42 43 44 44 45 45 45 45 46 49 51 52 53 54 53 51 50 51 51 53 54 55 54 54 53 52 52 55 57 56 54 50 47 45 44 43 43 41 39 38 36 34 32 32 31 32 33
8 8 6 6 6 6 6 12 21 19 11 8 13 21 26 24 21 21 21 21 22 22 24 26 26 26 28 30 31 32 33 34 33 32 34 36 38 38 39 41 41 41 42 44 45 44 44 46 48 50 51 52 52 52 51 52 53 53 54 54 54 54 53 53 52 54 55 54 52 51 48 45 44 43 42 42 40 38 37 34 32 32 32 32 31 32
6 5 6 7 5 4 6 13 19 14 9 12 23 28 26 22 22 22 23 22 22 24 27 30 30 28 27 27 27 29 31 33 32 33 35 36 36 36 38 39 40 41 42 42 44 45 46 47 48 49 51 51 50 50 50 52 53 54 54 54 53 52 53 53 54 54 53 51 50 49 45 44 43 42 41 40 39 38 37 34 31 30 30 30 30 27
8 6 7 7 5 7 12 17 19 16 16 22 29 28 23 21 22 23 23 23 24 27 29 31 32 32 31 30 28 28 29 30 31 34 37 36 34 35 36 37 39 40 40 40 43 46 48 49 50 51 51 51 50 49 50 52 53 54 54 53 52 52 53 53 53 52 51 50 48 46 43 43 43 42 41 40 38 37 37 35 33 29 25 24 25 24
Wind_Direction
210 261 228 243 284 279 114 211 319 6 42 327 306 271 262 262 267 269 134 139 254 260 245 247 261 272 280 279 282 289 289 293 332 35 45 50 51 48 50 36 22 21 298 271 245 221 222 234 232 251 305 342 352 346 330 318 312 309 306 305 304 302 301 301 298 296 294 293 292 291 290 290 290 290 290 290 290 289 290 290 290 290 291 292 293 294
181 259 249 292 355 19 41 27 21 9 340 287 261 258 263 257 263 334 109 179 199 273 269 279 282 280 281 278 285 292 286 30 51 53 55 56 62 64 63 60 57 50 28 37 65 111 79 54 48 40 38 34 24 11 353 337 329 323 318 315 313 312 308 304 302 299 297 296 295 294 293 292 291 290 290 290 290 289 288 287 287 287 288 289 290 291
230 230 264 4 345 18 55 39 28 336 268 250 235 246 266 257 252 67 90 187 166 175 271 291 294 282 281 280 290 328 52 64 62 70 68 65 69 69 65 60 62 62 58 64 75 78 57 43 39 35 29 22 14 3 350 340 334 328 324 320 316 314 311 307 304 300 299 298 297 295 295 293 291 290 290 290 289 287 286 285 285 286 286 287 288 290
252 208 44 343 322 323 38 86 329 257 236 229 221 230 256 299 14 103 200 216 199 212 253 292 303 282 280 281 357 62 78 78 78 83 77 73 74 74 70 63 63 63 63 69 76 76 63 51 45 33 23 18 9 360 351 343 337 332 330 327 323 321 317 314 312 307 303 299 295 294 294 292 290 288 286 285 283 282 283 284 284 286 287 287 288 289
262 53 11 305 291 296 283 191 213 250 264 235 205 231 266 356 31 253 319 324 277 244 249 307 306 274 267 219 119 88 94 97 95 92 82 75 76 78 74 67 66 65 64 65 65 64 62 58 45 28 23 16 2 356 352 347 343 339 337 335 333 330 327 324 321 317 311 303 299 297 295 293 290 287 284 280 278 278 280 283 284 286 287 286 286 286
260 37 341 277 251 312 302 271 232 215 281 284 207 4 1 42 25 322 340 344 320 306 194 6 311 279 305 122 140 133 117 106 101 96 84 75 72 72 70 66 65 63 63 62 61 58 53 49 36 25 20 6 354 351 351 349 349 347 345 342 339 336 333 330 326 323 318 312 308 306 302 299 295 293 290 286 284 282 282 283 284 285 285 284 284 284
207 73 305 286 292 323 277 274 274 120 313 294 287 360 21 42 360 309 333 360 311 301 246 182 233 279 323 311 160 138 116 104 93 82 78 77 73 68 65 62 58 55 53 51 47 43 36 30 25 20 9 354 348 347 346 345 343 343 343 341 340 339 336 334 330 327 323 319 316 312 308 305 301 297 297 295 292 288 286 285 283 283 283 282 282 282
140 136 245 281 296 281 259 272 327 47 352 256 236 328 353 309 267 269 292 223 241 300 281 225 197 235 297 284 150 127 113 103 89 80 80 77 72 67 63 59 54 49 48 42 34 30 25 15 10 6 355 345 342 340 338 338 338 337 337 338 340 340 339 338 335 329 326 322 319 316 312 309 305 302 301 298 293 289 287 284 283 282 280 280 281 282
181 131 212 183 264 261 258 313 343 345 46 204 235 270 289 266 262 272 262 250 265 305 290 231 168 186 275 228 124 116 114 108 95 89 85 75 71 68 63 60 55 49 46 42 34 26 18 6 359 354 348 343 340 338 336 335 336 336 337 338 340 341 340 338 335 330 326 323 320 318 316 314 311 308 304 299 292 287 284 280 280 279 278 278 279 281
22 61 358 5 243 246 349 95 346 323 251 286 288 254 257 248 233 240 229 252 267 254 271 223 161 192 277 187 133 111 108 118 114 98 88 81 75 69 65 64 60 50 42 37 31 22 14 2 352 347 344 342 338 335 334 332 333 336 338 338 340 342 341 337 335 332 330 327 324 322 320 318 318 315 309 301 293 287 283 277 274 274 275 276 278 280
105 80 40 18 308 340 336 242 192 320 330 330 299 273 276 250 167 163 222 241 272 255 289 227 164 169 310 234 130 98 99 124 123 103 88 82 76 71 69 67 60 47 37 31 24 17 9 358 349 342 339 339 336 333 330 328 329 333 336 338 339 341 340 337 335 334 332 331 328 325 322 320 321 320 316 309 301 293 285 278 274 273 274 275 278 280
117 105 91 75 332 328 297 249 160 318 322 306 281 287 309 306 125 120 215 186 181 261 305 348 10 99 224 249 60 68 58 85 104 99 84 77 76 75 69 64 56 42 29 23 17 10 4 357 349 341 336 335 333 331 327 324 325 329 333 336 337 338 337 335 335 334 333 332 330 326 322 321 321 321 318 314 310 303 291 281 277 274 273 274 275 277
146 262 136 110 14 357 286 284 41 289 241 245 275 326 342 329 289 241 236 204 198 217 252 9 17 305 241 221 127 115 79 77 88 87 81 73 68 68 66 62 52 35 20 13 9 3 358 354 348 339 331 329 328 327 324 321 323 327 330 333 334 334 334 331 330 330 329 329 329 325 321 320 320 319 318 315 313 309 300 288 279 274 273 274 274 275
321 303 287 133 45 5 327 335 360 329 323 292 300 18 8 346 312 285 273 277 284 245 265 24 53 248 267 346 114 115 95 92 93 89 85 71 56 56 64 57 41 27 15 6 360 356 352 349 346 339 330 326 324 324 323 321 324 327 327 329 330 331 330 327 325 325 323 322 325 324 321 319 317 316 316 315 313 311 307 297 285 277 274 274 275 276
293 279 300 16 290 298 343 51 148 266 314 296 170 65 29 224 278 278 319 321 303 293 290 17 69 248 264 74 99 98 98 97 93 89 82 66 47 47 59 43 27 14 4 357 352 350 348 347 346 341 334 325 321 322 323 324 327 327 326 326 326 326 326 323 321 319 316 315 318 319 318 319 319 319 317 316 316 313 309 304 294 284 277 274 275 276
243 240 314 14 302 305 19 73 120 336 320 296 28 42 280 220 260 284 303 283 271 283 288 195 235 287 80 98 99 104 108 99 80 65 66 59 39 43 51 29 17 6 356 351 346 343 344 346 346 342 336 326 320 320 323 326 329 328 327 325 323 323 322 321 319 317 315 315 315 313 312 313 319 325 324 321 320 317 312 306 299 293 285 278 274 274
312 275 188 133 314 14 40 342 351 37 8 311 8 360 235 203 157 302 295 283 265 278 263 176 228 324 89 101 130 129 118 91 71 53 56 54 36 35 31 18 11 360 351 346 344 343 342 343 343 341 336 327 320 320 324 330 331 330 328 326 323 322 321 320 320 318 317 318 316 312 311 310 309 319 327 325 323 321 316 308 302 298 291 282 276 273
333 284 236 136 322 31 84 309 328 28 22 349 269 286 279 194 110 91 305 313 297 266 250 180 285 286 285 292 208 147 90 58 57 45 50 45 29 25 24 17 5 352 348 345 345 344 342 340 340 339 335 324 318 323 330 335 334 331 330 327 325 324 323 322 322 321 320 320 319 314 312 311 306 306 313 320 323 322 317 313 308 301 293 286 280 275
338 296 289 333 318 164 142 322 328 331 331 320 273 287 353 76 337 301 313 322 303 282 281 283 296 300 313 24 135 110 63 44 36 29 38 32 20 20 19 9 356 351 348 346 346 344 341 338 337 336 334 326 325 333 337 336 333 331 329 326 325 325 323 322 321 320 319 320 320 317 314 312 309 305 302 307 317 321 317 315 313 305 296 289 282 277
327 243 266 296 321 102 123 151 22 359 317 336 323 327 67 138 192 207 246 253 262 273 283 298 333 354 18 101 112 84 61 59 37 20 26 22 14 11 6 357 352 351 348 347 346 342 339 336 335 336 334 329 333 336 336 335 333 331 328 323 322 321 320 318 315 315 315 316 316 316 313 310 308 305 300 298 305 313 316 314 310 305 298 290 284 280
310 217 260 305 346 10 311 207 49 53 78 34 345 142 28 263 166 359 299 187 228 275 285 315 314 20 54 77 86 68 64 71 47 31 21 12 7 2 357 353 350 348 346 346 343 339 337 335 336 337 335 333 337 337 337 337 334 330 326 322 321 320 319 318 316 316 317 319 317 315 313 309 305 303 299 296 295 301 309 310 305 302 298 294 292 289
323 264 293 308 291 302 307 217 2 1 54 57 353 285 36 9 41 337 297 54 32 296 274 309 292 309 41 79 79 58 68 69 45 35 16 4 1 357 353 351 348 346 344 343 340 337 336 338 341 344 344 342 341 338 336 335 332 329 326 324 322 319 315 313 313 313 315 318 320 319 315 310 306 302 297 294 292 293 300 305 302 297 294 295 300 301
353 281 286 281 267 296 65 186 346 339 338 64 46 21 25 27 61 334 287 336 12 309 324 294 266 294 32 88 61 32 39 44 33 24 11 360 358 355 351 348 345 343 342 339 336 336 341 348 351 348 343 339 335 334 332 331 330 328 326 324 321 316 311 309 307 306 307 310 315 317 315 311 308 304 296 293 292 289 292 299 300 295 292 295 299 302
351 238 254 275 263 69 80 235 329 345 352 54 66 34 37 56 72 129 243 300 340 262 268 260 249 262 352 43 33 31 36 31 19 12 5 358 355 352 348 345 343 342 339 335 336 343 350 352 349 343 338 334 331 330 330 330 329 328 327 326 323 319 316 315 312 307 303 305 309 312 313 311 309 304 295 291 291 288 288 294 297 293 292 295 298 301
345 225 360 322 299 348 24 341 347 349 5 35 50 44 54 63 53 32 247 12 254 234 242 254 257 263 332 358 17 32 32 17 8 6 2 356 352 349 345 343 342 339 335 334 343 352 351 347 344 340 335 331 330 329 329 329 327 325 325 325 325 324 322 320 318 312 307 308 308 309 312 314 313 306 295 290 290 290 289 290 291 290 291 295 299 301
325 281 334 332 301 316 327 324 344 352 346 349 62 61 46 49 54 10 313 28 261 327 352 281 271 320 345 352 6 18 13 4 2 0 356 352 348 345 342 340 339 336 333 339 350 351 346 343 340 336 332 330 330 330 329 328 326 324 324 323 324 324 322 320 320 316 313 312 311 310 313 316 315 309 300 295 295 295 292 287 285 287 291 296 298 299
308 290 291 263 255 275 295 295 319 355 334 319 20 52 61 78 72 53 349 287 298 333 328 288 323 333 334 350 7 8 3 359 357 353 350 348 345 341 338 337 336 336 338 346 349 346 342 340 336 334 333 332 331 329 328 328 327 326 324 324 324 323 320 320 320 320 318 315 313 313 314 315 314 308 301 299 300 297 291 285 281 285 292 297 299 299
289 285 320 305 275 289 302 298 310 333 319 321 14 26 59 106 96 78 12 292 320 331 289 327 349 329 323 357 11 1 357 354 350 349 347 344 341 338 336 335 335 340 346 347 345 342 340 338 336 334 332 330 329 328 328 328 326 324 323 324 325 326 325 324 322 319 316 315 315 314 314 313 311 307 303 303 304 301 293 285 279 282 289 293 295 295
321 281 360 25 298 290 282 280 286 297 319 36 42 21 30 75 105 109 259 294 326 313 288 325 334 316 330 7 3 355 355 349 346 346 343 341 340 337 334 334 338 346 347 344 342 342 340 337 334 331 330 329 329 328 327 325 323 323 324 326 327 328 328 324 320 317 315 314 312 312 312 310 307 304 303 303 303 302 298 290 282 281 284 285 287 288
22 259 242 222 274 282 275 270 267 229 86 63 51 27 24 28 32 46 6 335 344 318 303 319 314 309 3 11 351 350 350 345 344 344 343 343 340 335 333 336 344 346 343 342 343 341 336 333 331 331 331 330 329 327 326 326 326 327 327 326 323 321 320 320 318 316 312 310 310 311 311 309 306 303 303 302 300 298 296 292 287 285 284 282 282 283
60 57 301 250 280 299 295 237 221 125 96 73 55 30 22 24 23 22 4 350 342 315 307 315 307 311 8 357 344 344 345 345 345 345 346 343 335 332 337 343 344 342 341 342 341 335 332 332 332 333 332 329 328 329 329 328 327 325 323 321 319 318 317 316 314 313 312 312 313 313 312 310 308 306 305 303 302 299 297 294 291 289 287 284 281 280
72 321 312 327 313 302 205 273 10 95 88 71 53 26 13 25 27 9 346 333 324 317 321 330 330 336 349 345 340 339 343 345 344 345 344 334 328 332 345 347 343 343 342 339 336 333 333 333 334 333 331 331 332 330 328 326 324 322 322 321 320 319 318 316 315 316 316 315 313 311 311 311 310 307 305 303 301 299 297 296 293 292 291 289 284 280
38 316 310 343 319 289 311 329 345 97 97 57 41 21 9 24 20 358 337 326 334 348 347 344 350 340 341 345 342 340 342 340 338 341 335 324 324 337 348 347 345 342 338 335 334 334 333 332 332 332 331 331 331 327 324 323 322 321 323 322 320 319 319 318 319 319 317 315 312 309 311 314 312 306 302 301 299 296 295 294 294 293 292 291 288 284
311 277 284 323 301 286 314 323 318 225 133 78 57 25 15 33 20 353 328 333 13 36 22 346 345 347 348 350 344 336 335 332 331 332 327 324 338 352 349 345 342 336 333 333 334 333 332 331 331 331 329 327 326 324 323 322 321 320 320 320 320 319 319 319 321 321 318 315 311 306 307 313 312 305 302 302 303 301 299 298 297 296 294 292 290 287
284 281 290 280 216 276 307 328 333 333 140 139 98 38 24 30 12 349 335 11 44 35 12 356 351 348 347 345 341 335 331 327 324 323 322 334 354 354 345 338 334 332 332 333 333 332 332 331 330 328 328 327 325 323 323 323 322 320 320 321 320 318 318 318 319 320 317 312 307 304 306 312 313 309 307 307 306 305 303 302 300 298 296 293 292 291
287 292 303 277 258 296 326 344 348 59 93 83 50 27 17 11 3 351 345 19 44 26 10 354 341 345 348 344 338 333 327 322 318 317 323 343 349 345 338 333 332 332 332 331 331 331 330 329 328 327 326 325 324 323 324 324 323 322 322 322 319 316 316 315 317 320 318 311 305 303 306 312 313 309 308 307 305 304 303 301 298 297 297 296 297 300
310 313 344 339 356 56 337 313 287 154 76 29 23 10 4 5 359 338 320 340 46 25 6 352 343 346 347 340 332 330 329 322 314 315 333 342 341 338 334 332 331 330 329 328 328 328 327 326 327 326 324 324 324 324 325 324 323 324 324 322 319 315 314 315 318 323 324 316 308 307 310 312 311 308 308 308 307 306 305 303 302 303 305 305 304 305
302 305 36 20 8 57 13 318 308 213 236 28 11 346 353 352 331 315 297 274 39 16 3 357 349 343 339 334 332 333 333 326 311 321 335 336 335 334 332 330 330 329 328 328 328 327 327 327 327 327 326 326 326 326 326 325 325 326 324 320 316 314 315 319 322 324 322 318 313 312 313 312 309 306 307 307 306 305 305 305 306 308 308 308 306 303
327 287 207 308 339 26 22 316 306 286 211 42 354 336 350 342 323 314 290 248 10 7 0 351 338 333 334 333 334 336 335 330 315 321 328 330 330 331 330 328 328 328 328 329 329 327 327 327 329 329 329 328 328 328 328 326 326 326 322 318 317 317 319 322 322 320 319 316 311 309 309 310 309 306 305 304 303 303 303 304 304 304 304 303 301 299
11 336 8 40 1 352 353 298 297 39 76 15 343 337 347 340 327 318 286 309 351 353 350 344 336 335 336 334 335 338 333 324 316 316 322 325 324 325 327 327 328 329 329 330 330 328 327 328 330 331 331 330 328 328 328 327 326 325 323 320 320 321 322 322 321 320 318 313 310 309 308 308 307 305 303 301 300 299 299 300 301 301 301 299 296 295
19 344 19 52 14 341 335 304 313 144 92 357 346 354 356 346 334 330 318 328 339 336 335 344 345 339 338 335 333 329 318 315 315 314 318 322 322 323 326 326 326 327 328 330 330 329 328 329 329 330 330 329 328 327 328 328 326 325 324 322 322 322 322 321 321 318 314 312 312 312 311 310 310 309 307 305 302 299 297 296 298 299 299 296 294 294
12 335 12 52 20 338 312 304 313 180 53 8 358 5 10 4 336 328 333 329 335 334 335 344 344 339 339 336 329 322 316 315 316 316 318 322 323 324 326 327 327 328 329 330 330 330 330 328 328 329 329 330 331 330 330 329 326 324 324 324 323 323 322 322 320 316 314 315 316 317 318 317 315 314 312 311 309 305 301 300 300 299 298 296 294 292
357 329 358 11 9 340 312 332 333 236 17 13 7 9 24 25 332 330 332 328 334 340 340 339 338 338 339 332 325 322 320 318 319 320 321 324 326 326 327 327 328 329 330 331 330 331 331 328 328 329 330 332 332 332 331 329 326 325 325 324 324 324 322 320 318 317 318 320 321 321 318 314 311 310 309 307 306 303 302 302 300 297 296 294 293 291
2 53 9 339 14 30 307 323 19 26 10 14 13 6 6 0 343 340 337 331 334 341 339 334 332 336 337 330 324 322 321 321 322 324 325 326 327 328 327 328 330 330 330 330 330 330 330 329 329 330 330 332 332 331 331 330 328 327 326 326 326 324 320 319 320 321 321 320 318 316 312 311 311 310 308 306 305 303 301 299 298 296 294 293 291 289
33 23 341 261 322 349 280 275 24 24 7 3 3 357 349 347 343 341 339 335 335 337 335 330 329 332 333 329 324 321 320 320 322 324 326 327 327 327 327 328 330 330 329 329 330 330 330 330 329 329 330 331 332 332 332 332 331 329 327 327 326 323 322 323 324 322 320 317 316 315 313 314 313 312 311 309 307 304 301 299 298 297 295 293 291 287
49 19 349 287 354 346 320 15 27 14 355 348 347 347 347 344 341 340 341 340 337 334 331 326 326 329 330 328 325 321 320 321 322 323 326 326 325 326 327 327 329 330 330 330 330 330 331 330 330 330 330 331 333 334 334 334 333 331 328 328 327 326 324 323 322 320 319 318 318 317 317 316 315 315 314 313 311 309 306 304 303 301 298 297 293 290
39 17 353 329 13 341 316 45 32 5 341 335 333 340 346 342 337 338 340 337 334 333 330 325 323 326 326 326 324 321 320 322 323 323 325 326 325 326 327 328 329 330 331 331 330 331 332 331 331 331 330 330 332 334 335 334 334 333 331 330 329 327 325 324 323 322 321 319 319 320 320 319 318 317 317 317 317 315 312 311 309 305 302 302 298 297
346 357 347 338 353 310 276 356 3 344 326 323 333 345 344 338 335 336 336 332 328 330 330 326 324 325 325 324 323 321 321 323 324 324 325 326 325 326 327 328 328 329 330 331 332 332 332 331 331 332 331 331 332 334 335 335 334 334 332 331 330 329 328 327 326 323 321 321 323 324 323 322 320 319 319 319 318 316 314 314 311 306 304 303 300 300
328 338 339 323 317 296 290 335 345 337 318 316 337 339 337 336 334 334 334 331 327 327 329 327 325 324 324 323 323 322 321 323 324 325 326 325 324 324 325 326 327 326 328 330 331 332 331 331 331 331 331 332 333 334 335 335 334 334 334 333 333 333 331 329 327 326 326 327 327 326 325 323 323 322 321 320 318 316 314 312 310 308 305 302 301 303
355 346 340 329 317 311 325 338 341 334 309 314 327 331 333 335 335 334 335 333 331 330 330 328 327 327 326 326 325 324 322 323 324 324 324 324 323 323 323 325 326 326 328 331 332 332 332 332 332 330 331 333 334 335 335 334 333 334 335 335 336 335 334 332 331 331 331 330 329 328 327 326 326 326 324 322 320 318 315 312 311 309 305 302 304 306
11 348 337 333 314 307 319 330 332 322 306 311 321 326 330 334 335 334 334 332 331 331 330 330 329 328 327 328 328 326 324 323 323 324 324 323 322 322 322 323 326 326 327 330 331 332 333 334 333 333 334 335 336 335 334 334 334 335 336 337 338 337 336 336 334 333 332 332 332 332 330 328 328 328 326 324 323 322 320 319 319 319 317 313 310 307